Flag for Canada Weather past 2 weeks in Timmins, Ontario, Canada

Now
37 °F

Scattered clouds.


Feels Like: 32 °F
Forecast: 38 / 61 °F
Wind: 7 mph from North

Location: Timmins

Current Time: May 28, 2015 at 9:20:16 AM

Latest Report: May 28, 2015 at 8:00 AM


Visibility: 15 mi

Pressure: 30.29 "Hg

Humidity: 81%

Dew point: 32 °F

Location of TimminsLocation

Historic Weather in Timmins — Graph

°F

Timmins temperature yesterday

Maximum temperature yesterday: 64 °F (at 11:00 AM)
Minimum temperature yesterday: 45 °F (at 11:00 PM)
Average temperature yesterday: 60 °F

Past Weeks' High & Low Weather Summary

 TemperatureHumidityPressure
High79 °F (May 17, 3:00 PM)100% (May 17, 3:00 AM)30.40 "Hg (May 17, 3:00 AM)
Low27 °F (May 14, 5:00 AM)21% (May 13, 5:00 PM)29.66 "Hg (May 27, 5:52 AM)
Average51 °F73%30.01 "Hg
* Reported May 13 8:00 AM — May 28 8:00 AM, Timmins, Weather by CustomWeather, © 2015

Note: Actual official high and low records may vary slightly from our data, if they occured in-between our weather recording intervals... More about our weather records

Advertising

Timmins weather history for previous 24 hours

 ConditionsComfort  
Time TempWeatherWind HumidityBarometerVisibility
8:00 AM
Thu, May 28
37 °FScattered clouds.7 mph81%30.29 "Hg15 mi
7:00 AM36 °FBroken clouds.7 mph93%30.27 "Hg15 mi
6:00 AM36 °FMostly cloudy.8 mph93%30.23 "Hg15 mi
5:00 AM36 °FMostly cloudy.7 mph100%30.19 "Hg12 mi
4:00 AM37 °FFog.7 mph93%30.17 "Hg10 mi
3:03 AM39 °FDrizzle. Fog.10 mph100%30.15 "Hg2 mi
2:00 AM41 °FLight rain. Fog.9 mph93%30.13 "Hg2 mi
1:00 AM41 °FDrizzle. Fog.12 mph93%30.11 "Hg2 mi
12:00 AM43 °FLow clouds.9 mph93%30.07 "Hg12 mi
11:00 PM
Wed, May 27
45 °FMostly cloudy.14 mph93%30.03 "Hg12 mi
10:00 PM46 °FLight rain. Mostly cloudy.12 mph93%29.98 "Hg8 mi
9:00 PM50 °FLight rain. Mostly cloudy.14 mph94%29.93 "Hg8 mi
8:00 PM57 °FLight rain. More clouds than sun.7 mph100%29.87 "Hg10 mi
7:00 PM59 °FSprinkles. Cloudy.6 mph94%29.83 "Hg10 mi
6:00 PM59 °FSprinkles. Fog.9 mph94%29.78 "Hg6 mi
5:00 PM61 °FSprinkles. Fog.10 mph94%29.75 "Hg6 mi
4:00 PM61 °FSprinkles. Fog.16 mph94%29.70 "Hg2 mi
3:00 PM63 °FSprinkles. Fog.8 mph94%29.69 "Hg2 mi
2:00 PM64 °FSprinkles. More clouds than sun.12 mphN/A29.68 "Hg12 mi
1:00 PM64 °FSprinkles. Broken clouds.8 mph88%29.67 "Hg5 mi
12:00 PM64 °FBroken clouds.6 mph94%29.66 "Hg15 mi
11:00 AM64 °FBroken clouds.7 mph94%29.66 "Hg7 mi
10:00 AM63 °FFog.5 mph94%29.66 "Hg3 mi
9:00 AM63 °FFog.5 mph94%29.67 "Hg2 mi
Weather by CustomWeather, © 2015

See weather overviewHow to use our weather pages